Dewpoint
10 11 5 4 4 2 2 6 6 4 -1 3 8 9 13 12 10 10 10 11 11 12 14 16 19 19 20 23 25 28 33 40 48 51 48 46 41 38 36 35 34 33 33 32
10 14 6 2 4 1 1 1 3 7 3 10 11 13 12 11 9 9 10 11 11 12 13 15 17 18 20 21 23 26 31 37 41 51 49 47 42 38 37 35 34 34 33 32
7 14 14 -0 2 2 1 2 3 -3 3 8 7 8 11 9 8 7 8 10 11 12 13 14 17 19 19 21 23 25 29 35 39 44 49 48 42 38 37 35 34 33 33 32
-2 -4 -9 1 9 5 1 3 4 3 5 7 7 9 12 13 10 7 8 8 10 13 13 15 17 19 19 21 23 25 28 33 36 38 44 46 40 38 37 35 34 33 33 32
-8 -13 -8 2 3 1 1 -2 5 3 4 3 4 10 12 8 8 9 8 9 10 12 14 15 17 18 19 21 22 24 27 30 32 35 38 41 40 39 36 35 33 33 32 31
-11 -13 -15 -9 -4 -2 8 -0 5 5 3 5 2 0 6 5 7 8 8 9 10 12 13 14 17 17 19 20 21 22 24 27 29 33 35 39 39 38 36 34 33 32 31 30
-10 -13 -4 -2 0 4 -10 -5 5 5 4 4 2 4 7 8 8 8 9 9 11 12 13 14 16 17 19 20 20 22 24 26 28 31 33 36 37 36 34 33 30 29 28 28
-13 -18 -10 4 1 -8 -6 0 1 4 4 5 6 6 7 8 8 8 9 9 11 12 13 15 16 17 18 19 21 23 24 26 28 31 32 33 33 32 32 30 30 27 26 25
-9 -10 -1 6 3 3 3 4 5 5 6 6 5 6 7 7 7 8 9 10 12 13 14 15 16 17 18 19 22 23 23 26 27 30 29 29 30 29 29 30 29 27 26 26
4 3 4 5 7 7 4 5 7 7 7 7 6 6 6 7 7 8 10 11 13 15 15 15 16 18 19 20 22 23 23 25 28 29 28 28 28 28 29 29 28 27 26 27
3 4 6 7 7 7 7 7 6 6 7 6 6 5 6 6 7 9 10 12 15 15 15 15 17 19 19 20 21 21 22 24 27 29 29 27 28 28 29 29 29 28 28 29
-4 4 4 4 9 9 7 6 6 7 5 5 6 5 7 6 8 9 14 14 14 15 16 16 17 16 17 17 19 21 22 22 23 28 27 27 27 28 29 29 31 31 31 31
3 6 7 9 8 9 7 7 7 8 6 5 4 6 6 6 8 16 12 13 14 15 16 17 16 16 16 17 19 22 21 18 23 28 27 26 27 27 27 31 34 33 33 33
6 7 4 6 4 8 9 9 10 8 7 7 6 4 4 4 7 8 10 13 15 15 13 14 15 14 16 17 19 22 21 26 24 25 26 26 27 27 28 28 29 31 35 34
2 7 7 8 8 7 8 8 5 4 5 4 4 -1 -0 2 3 6 10 13 14 13 12 13 15 16 17 18 19 22 21 18 19 22 24 27 27 27 28 28 28 29 31 34
2 2 5 5 5 5 5 4 3 3 3 3 3 3 4 4 4 6 9 12 13 13 15 15 16 18 19 17 17 20 17 27 26 21 24 26 27 27 27 27 27 28 29 31
-4 -5 -1 -1 2 3 3 5 5 5 4 4 4 5 6 5 4 5 9 12 15 16 17 19 18 21 20 19 18 18 22 19 28 24 23 23 26 27 27 27 26 25 26 28
0 1 2 2 2 2 3 4 5 6 5 6 7 6 6 5 5 7 9 10 12 13 16 18 22 21 20 21 15 19 20 20 15 14 19 22 23 24 24 24 24 24 25 26
-1 -1 0 1 2 3 4 4 5 6 7 7 6 6 7 7 8 8 8 7 9 9 15 17 23 20 20 22 22 18 18 19 19 20 23 25 23 22 21 20 19 19 19 18
-2 -1 -0 0 2 3 3 5 6 5 7 7 7 6 6 7 8 7 7 7 11 12 18 18 20 20 20 21 23 21 20 20 19 18 19 19 19 19 19 19 18 17 17 17
-4 -3 -3 -1 0 2 4 5 5 5 6 7 6 6 6 7 8 8 7 7 8 17 17 18 19 21 20 20 19 19 19 18 18 18 18 18 17 17 16 16 16 16 15 15
-4 -4 -4 -2 -1 1 3 5 6 6 6 6 6 6 6 6 7 7 8 8 11 18 15 14 20 22 21 19 17 17 17 17 17 17 17 17 16 15 15 15 15 15 15 14
-5 -5 -4 -3 -1 1 3 4 5 6 5 6 5 5 4 6 7 5 3 9 13 16 13 14 21 21 20 14 15 15 15 15 15 15 16 16 15 15 15 14 14 14 14 13
-7 -6 -5 -2 1 -1 -1 2 4 6 6 6 6 6 5 4 5 8 9 12 15 14 12 17 19 20 17 13 13 13 13 14 15 15 16 17 15 14 14 13 13 14 14 13
-9 -7 -4 -3 -2 -2 1 3 4 2 5 4 4 5 6 7 6 8 8 9 13 12 8 14 17 16 11 11 11 12 14 13 12 12 12 12 12 12 12 12 11 11 11 11
-13 -9 -5 -5 -1 -0 2 4 1 0 4 2 3 4 6 7 7 8 8 11 7 10 6 7 12 10 9 11 10 10 10 10 11 12 11 10 10 11 10 9 9 9 8 7
-10 -1 -3 -7 -4 -2 1 1 -0 -1 1 2 2 1 3 6 7 8 9 7 7 7 6 6 6 11 9 9 8 9 9 12 11 8 8 8 8 7 7 6 6 5 5 5
Lifted_Index
4 5 5 4 3 3 3 3 3 3 4 6 9 10 10 10 10 9 9 9 8 7 7 7 7 7 6 5 3 2 2 2 2 2 2 2 3 3 3 3 3 3 3 3
4 5 5 4 4 4 4 4 4 3 5 8 10 11 11 11 11 10 10 10 9 8 8 8 8 7 7 6 4 3 2 2 2 2 2 2 3 3 3 3 3 3 3 3
3 4 4 4 5 6 6 7 6 6 7 10 11 11 12 12 12 11 11 11 11 10 10 10 10 9 8 7 6 5 4 3 2 2 2 3 3 3 3 4 4 4 4 4
3 3 3 5 7 8 8 8 9 9 10 11 12 12 13 14 14 14 13 13 13 13 13 13 12 11 10 9 8 6 5 4 3 3 3 3 4 4 4 4 4 4 5 5
3 3 4 6 8 9 8 9 10 11 11 12 12 12 13 16 17 16 15 14 14 14 14 14 14 13 12 10 9 8 7 6 5 5 4 5 5 5 5 5 5 5 5 6
4 3 4 7 10 10 9 8 11 13 12 12 12 11 13 16 18 17 17 16 16 15 15 15 15 14 12 11 10 9 8 7 7 7 6 6 6 6 6 6 6 6 6 6
5 4 5 8 11 10 9 9 12 14 14 13 12 13 15 17 18 18 18 17 17 16 16 16 16 15 13 11 11 10 10 9 8 8 8 8 7 7 7 7 7 7 7 7
6 5 6 9 11 11 11 12 14 15 15 15 14 15 16 17 17 17 17 18 18 17 16 16 16 15 13 12 12 12 11 10 9 9 9 8 8 8 8 8 8 8 8 8
7 7 8 11 12 13 14 15 15 15 16 16 16 16 17 17 17 17 17 18 18 17 16 16 16 15 14 13 13 13 12 11 10 10 9 9 9 9 8 8 8 9 9 9
7 8 10 12 14 15 15 15 16 16 16 16 16 16 17 17 18 18 18 18 18 18 17 17 17 17 16 15 15 14 12 12 11 10 10 10 9 9 9 9 9 9 9 9
8 9 11 12 14 14 15 15 16 16 16 16 16 16 17 17 18 19 19 19 19 19 18 18 18 18 18 18 17 15 14 13 12 11 10 10 10 10 10 10 10 10 10 10
8 10 12 12 13 14 14 14 15 15 16 16 16 16 17 17 18 19 19 19 19 19 19 18 18 18 19 19 18 16 15 14 13 12 11 10 10 10 11 11 11 11 11 11
10 11 12 12 13 13 13 13 14 14 15 15 16 16 17 17 18 18 18 19 19 19 19 19 18 18 19 19 18 17 15 15 14 13 12 11 10 10 11 11 12 12 12 13
11 11 11 12 12 12 12 13 13 13 14 14 15 16 16 16 17 17 18 18 18 18 19 18 18 18 18 19 18 17 16 16 15 14 13 13 12 12 12 12 12 12 13 14
11 11 11 11 11 11 11 11 11 11 12 13 13 14 15 15 16 16 17 17 18 18 18 18 18 18 19 19 18 17 17 17 16 16 15 15 14 14 13 13 13 13 14 14
10 10 10 10 10 10 10 10 10 10 10 11 11 12 13 14 15 15 16 17 17 17 17 17 17 18 18 19 18 18 18 18 18 17 17 16 16 15 15 15 15 15 15 15
9 9 9 9 9 9 9 10 10 9 10 10 11 11 12 12 13 14 15 16 16 16 17 17 17 17 18 18 18 18 18 18 18 18 18 17 17 16 16 16 16 16 16 17
10 10 10 9 9 9 9 10 10 10 10 10 10 11 11 12 12 13 14 14 15 16 16 17 17 17 17 17 17 17 18 18 18 18 18 18 17 17 17 17 17 17 17 17
10 10 10 10 10 9 9 10 10 10 10 10 10 10 11 11 12 12 13 13 14 14 16 17 17 17 17 17 17 17 17 17 17 18 18 18 17 17 17 17 17 17 17 17
9 9 9 9 9 9 9 10 10 10 10 10 10 10 11 11 12 12 12 12 13 14 15 16 16 16 17 17 17 16 16 16 17 17 17 17 17 17 17 17 17 17 17 17
9 9 9 9 9 9 10 10 10 10 10 10 11 11 11 11 11 12 12 12 13 14 15 15 15 16 16 16 16 17 16 16 16 17 16 16 17 17 17 17 17 17 18 18
9 9 9 9 9 9 10 10 10 10 10 11 11 11 11 11 11 12 12 12 13 14 14 15 15 15 15 16 16 16 16 16 16 16 16 16 16 16 17 17 18 18 18 19
9 9 9 9 9 9 10 10 11 11 11 11 11 11 11 11 12 12 12 13 13 14 14 14 14 15 15 15 15 15 16 16 16 16 16 16 16 16 17 17 18 19 19 20
10 10 9 9 9 9 9 10 11 11 11 12 12 12 12 12 12 12 13 13 13 13 13 13 13 14 14 14 14 14 15 15 16 16 16 17 17 17 17 18 18 19 19 20
11 11 10 10 9 9 9 10 10 11 11 11 12 12 12 12 13 13 13 13 13 13 13 13 13 13 13 13 14 14 14 15 15 15 16 17 17 17 18 18 18 18 19 19
12 12 12 11 11 10 10 10 10 10 10 11 11 12 13 13 13 13 13 13 13 13 13 13 13 13 13 13 13 14 14 14 15 15 16 16 17 17 18 18 18 18 19 19
13 13 12 12 12 11 11 10 9 9 10 10 11 12 12 13 13 13 13 13 13 13 13 13 13 13 13 13 13 14 14 14 15 15 16 16 17 17 18 18 18 19 19 19